GFSCGP_850_thetae_228.txt.gz
Theta_e
313 312 311 315 314 315 316 320 321 317 317 320 322 321 320 315 320 323 324 330 332 333 331 330 333 337 337 334 333 333 332 332 332 330 327 324 324 325 327 329 329 329 329 329
311 314 313 314 314 316 316 316 316 316 316 319 320 320 319 316 314 318 320 326 330 332 332 332 332 337 337 334 335 336 335 335 334 334 332 330 327 327 329 329 331 331 332 332
313 313 312 313 315 315 315 315 316 317 315 316 318 319 319 311 312 312 312 312 323 328 330 333 334 334 335 336 336 336 335 335 334 334 333 332 331 332 331 331 331 331 332 331
309 312 312 312 314 315 316 313 313 315 315 318 314 321 313 312 307 306 307 309 309 315 326 329 331 333 334 333 333 333 332 331 331 333 334 334 333 332 332 331 331 331 333 330
308 313 312 311 312 313 314 313 314 314 315 314 314 316 315 312 307 306 305 307 308 309 312 318 322 326 331 332 332 332 332 332 332 332 332 333 334 333 332 331 331 331 330 329
309 309 310 309 311 311 312 313 313 313 315 317 316 315 316 311 309 307 306 307 307 308 309 310 313 316 318 318 321 324 321 325 326 329 331 332 334 333 332 332 330 330 329 328
307 308 308 309 310 310 310 312 310 314 317 318 314 315 311 308 306 306 306 308 308 309 309 309 309 308 309 313 314 315 315 315 316 317 322 326 328 329 329 328 326 320 317 316
309 306 309 308 310 311 311 311 306 311 317 313 313 319 313 308 307 307 308 308 309 309 309 310 310 309 309 308 308 308 309 312 313 313 313 313 313 313 313 312 310 310 309 310
313 310 308 309 309 309 311 311 311 310 303 310 310 306 307 306 307 307 308 308 309 308 309 310 310 310 310 310 309 309 309 310 311 311 311 311 310 310 310 310 312 312 312 312
310 312 309 309 308 308 309 309 308 305 305 312 311 307 308 307 307 306 306 307 308 309 309 309 309 310 310 310 310 310 310 310 310 311 311 312 313 313 313 313 313 313 313 313
307 310 310 308 309 309 308 309 310 308 309 312 311 306 305 307 306 306 306 307 307 308 308 309 309 309 309 310 310 310 310 310 310 310 310 309 309 309 308 308 308 308 309 310
306 308 311 310 308 308 309 309 309 306 309 309 310 306 305 306 306 306 306 306 307 307 307 307 308 309 310 309 309 309 309 309 308 308 307 307 307 306 306 306 306 306 306 306
307 306 302 301 305 306 308 309 309 308 307 309 307 307 304 306 306 306 305 306 307 308 308 308 308 307 308 309 308 307 306 306 306 305 305 305 304 304 304 304 304 304 304 305
305 306 303 302 305 307 307 309 309 307 305 309 309 309 306 307 305 304 305 305 305 304 303 304 305 307 307 307 308 307 306 305 304 304 304 304 304 304 304 304 304 304 304 304
303 297 301 302 301 304 305 307 307 310 307 306 307 310 308 307 304 303 303 305 303 302 302 301 302 303 304 307 307 307 306 305 304 305 305 304 304 304 304 304 304 304 304 304
300 294 297 297 300 300 302 302 302 304 307 307 308 308 305 305 303 302 303 304 302 302 301 301 301 301 302 303 303 306 307 306 306 305 305 305 304 304 304 304 304 303 303 303
299 292 287 292 295 292 291 295 300 301 303 305 306 305 302 301 300 303 303 302 301 300 300 300 300 300 300 301 302 303 303 306 306 306 306 306 305 304 304 303 303 303 303 302
295 288 285 288 285 290 296 295 297 299 300 300 300 300 302 299 302 302 300 300 300 300 300 300 300 300 300 300 301 302 302 303 304 307 306 305 305 304 304 304 303 302 302 301
298 297 289 289 281 292 297 297 298 299 298 297 297 298 299 301 302 301 301 300 300 299 300 300 300 300 300 301 301 301 302 302 303 304 306 306 305 304 304 303 303 302 300 300
297 296 290 287 288 289 295 299 299 297 295 298 299 299 300 299 296 295 300 300 300 299 299 300 300 301 301 301 302 302 302 302 302 302 303 304 304 304 303 302 302 301 301 300
290 298 290 283 285 291 295 298 299 294 296 299 300 300 300 298 299 299 299 300 300 299 299 300 300 300 301 301 301 302 302 302 302 303 304 303 303 302 302 302 300 303 302 300
295 292 295 297 291 293 297 298 298 298 299 299 300 300 300 300 300 299 299 299 300 299 299 299 299 300 301 301 301 301 301 301 302 303 303 302 302 301 301 299 299 298 297 297
294 294 294 294 295 297 298 299 300 299 299 300 300 300 299 299 299 299 299 299 299 299 299 299 299 300 301 301 300 298 299 300 301 300 300 299 298 297 297 297 299 301 300 297
295 296 295 297 297 297 299 299 300 300 299 299 299 299 299 299 299 299 299 299 299 299 299 299 299 300 301 301 300 298 297 297 298 298 298 297 299 299 300 301 299 299 299 299
295 295 295 294 296 297 299 299 299 299 299 299 299 299 299 299 299 299 299 299 299 298 299 299 299 300 302 301 300 299 298 299 298 298 297 297 298 298 297 298 297 298 297 295
296 295 297 296 298 298 299 299 299 299 299 299 299 299 299 299 298 298 298 298 298 298 299 299 299 301 301 301 300 300 299 298 300 299 299 298 298 297 297 297 296 296 295 294

GFSCGP_850_thetae_231.txt.gz
Theta_e
312 313 312 315 313 311 316 320 321 318 318 322 322 322 321 315 312 320 325 331 331 331 330 329 332 331 327 325 326 326 327 327 325 326 321 317 319 317 319 321 325 326 327 329
308 312 313 313 314 314 315 319 319 317 318 321 322 323 320 316 312 308 311 320 327 329 331 332 331 331 333 333 334 330 327 329 329 329 329 325 322 322 323 325 328 328 328 330
311 312 312 312 314 315 311 315 317 318 315 316 320 319 315 314 311 307 307 308 317 324 329 330 333 332 333 335 336 331 328 331 330 333 333 332 330 329 328 328 330 330 330 330
309 311 312 312 314 315 316 313 315 316 316 319 314 321 311 311 311 306 305 306 308 316 324 327 330 332 333 335 335 331 330 331 332 332 332 332 331 331 329 329 330 330 330 329
307 310 310 310 312 313 314 313 313 313 312 315 316 317 315 311 311 309 306 306 307 309 313 326 325 328 330 331 332 333 333 333 332 332 331 331 331 331 332 331 330 330 329 329
307 308 308 308 310 311 310 313 313 312 313 316 316 316 315 313 312 309 307 307 308 309 309 309 315 322 322 323 328 329 329 329 328 328 327 325 329 328 326 333 331 330 328 327
305 306 307 308 310 309 311 311 313 311 307 314 314 316 314 310 309 306 306 307 309 309 310 310 309 309 308 311 314 315 317 319 321 320 322 327 328 331 331 331 330 329 328 326
309 306 307 307 309 310 310 310 310 311 314 314 312 315 313 307 308 309 308 307 308 309 309 310 310 310 309 309 308 308 309 311 312 313 312 313 316 320 322 323 322 319 315 312
310 309 307 308 308 308 310 310 310 310 303 310 309 307 308 308 306 306 307 308 309 309 309 309 309 310 310 310 310 309 309 309 310 311 311 311 311 311 311 311 310 310 310 311
308 310 308 308 307 307 309 308 308 306 307 311 310 307 308 307 307 306 305 306 307 308 308 309 309 309 309 310 310 310 310 310 310 310 310 310 311 311 312 313 314 314 313 313
307 309 308 306 308 309 307 308 308 307 309 311 312 308 304 307 306 305 305 306 306 307 307 307 308 309 309 310 310 309 309 309 309 309 310 310 310 310 310 309 309 309 309 310
306 307 304 309 306 306 308 309 308 306 307 308 307 309 305 305 306 305 304 306 307 307 307 307 307 307 309 309 309 307 307 308 308 307 307 307 306 307 306 306 306 306 306 306
307 304 297 302 304 305 307 308 308 306 306 309 307 307 304 305 304 304 304 305 304 303 303 304 306 307 307 307 308 307 306 306 306 305 305 305 305 305 305 305 305 305 305 305
305 305 300 302 304 305 307 308 308 307 304 308 308 306 304 305 303 303 303 303 302 301 301 301 302 302 303 306 307 307 306 305 304 304 304 304 304 304 304 304 304 304 304 304
301 298 299 301 301 303 305 306 306 309 307 305 307 308 306 307 303 302 304 302 302 301 300 300 300 300 301 302 302 304 307 306 305 304 304 304 304 304 303 304 304 304 304 303
298 296 295 294 298 297 300 302 303 304 307 307 307 308 304 304 302 301 303 302 301 300 300 300 300 300 300 300 300 302 302 303 307 306 305 305 305 304 304 303 303 303 303 303
298 292 289 291 293 291 292 294 299 301 302 304 306 305 302 300 300 301 302 300 300 300 300 300 300 300 300 300 300 300 301 302 303 304 306 306 305 305 305 304 303 303 303 303
295 290 285 289 286 290 295 294 296 298 299 300 301 301 301 299 301 301 300 300 300 299 299 299 299 300 300 300 300 300 300 301 302 302 303 305 306 305 304 303 303 304 303 303
297 295 289 291 281 291 295 297 297 299 298 297 298 297 298 300 300 300 301 300 300 300 299 299 299 300 300 300 300 300 301 301 302 302 302 303 304 305 304 303 303 302 302 302
297 295 292 286 286 288 293 298 298 296 293 296 298 298 299 299 295 293 299 299 299 300 299 299 299 299 299 300 300 301 301 301 302 302 302 302 303 303 304 303 302 302 301 300
292 291 292 290 285 290 293 297 298 293 294 298 300 300 299 296 298 299 299 299 299 299 299 299 299 299 299 300 300 301 301 301 301 302 302 303 303 303 302 302 301 301 300 299
296 293 294 288 286 293 296 296 298 297 298 299 299 299 299 299 299 299 299 299 298 299 299 299 299 299 299 299 300 301 301 301 300 301 302 302 302 301 301 301 300 299 300 300
294 295 294 294 295 296 297 298 298 298 299 299 299 299 299 299 299 299 299 299 298 298 298 299 299 299 298 299 300 301 300 299 298 299 301 301 300 298 297 297 297 297 297 298
294 294 294 296 296 296 298 299 299 299 300 299 299 299 299 299 299 299 299 299 299 299 298 298 298 298 298 299 301 300 299 297 298 297 298 298 298 299 300 300 301 301 301 298
294 294 294 293 295 297 298 298 299 299 299 299 299 299 299 299 299 299 298 298 298 298 298 298 298 298 299 299 301 300 299 299 299 300 298 298 298 298 298 298 297 298 299 298
295 294 295 295 297 298 298 299 299 299 299 299 299 299 299 299 299 299 299 299 298 298 298 298 298 298 298 300 301 300 300 300 299 299 299 298 298 298 298 297 297 297 297 297

GFSCGP_850_thetae_234.txt.gz
Theta_e
311 312 313 313 313 312 313 316 315 312 318 316 316 317 320 318 314 308 313 324 329 330 331 333 333 332 329 327 327 327 327 326 326 325 326 325 324 323 325 323 321 321 325 326
306 312 312 312 312 311 310 312 314 316 319 321 322 322 319 317 314 307 307 308 316 325 328 331 331 333 332 327 326 327 327 326 326 326 325 326 324 318 320 322 321 322 326 328
310 310 311 312 314 315 310 311 313 319 318 315 320 317 315 314 314 311 308 307 310 317 326 328 330 331 332 333 332 330 327 326 326 326 327 327 328 326 325 325 325 326 328 328
306 309 310 311 313 313 316 313 312 316 319 322 313 320 312 312 312 312 311 306 309 310 319 324 326 328 328 330 333 333 332 327 325 327 327 327 328 330 329 329 328 328 328 329
306 308 308 312 313 311 314 312 313 314 315 317 315 317 314 311 312 311 311 307 308 308 310 319 320 324 326 328 329 330 330 329 328 328 328 327 328 329 329 329 330 329 329 329
306 306 307 308 310 310 311 312 313 313 314 315 316 316 314 315 312 310 308 310 308 309 309 309 315 322 322 322 323 325 326 329 330 329 326 323 323 323 326 327 324 323 326 327
306 305 305 307 309 309 310 311 311 312 309 317 314 314 315 310 309 308 306 308 309 308 309 310 309 310 319 319 318 314 317 319 324 322 325 322 322 323 324 327 328 326 328 328
308 305 305 306 308 310 310 310 313 312 314 315 309 312 312 309 309 310 309 309 311 310 308 309 310 310 309 309 309 308 308 310 312 313 313 313 316 320 323 326 328 326 327 327
309 308 306 307 307 307 309 310 309 310 304 310 307 307 308 309 307 306 306 307 312 313 312 309 309 309 309 309 310 310 309 309 309 310 310 311 311 311 311 312 312 312 311 310
309 309 307 307 306 306 308 307 308 305 307 310 311 306 308 307 306 305 304 304 305 306 307 309 311 309 309 309 309 310 310 310 310 310 311 311 311 311 311 312 313 313 313 313
307 308 306 305 307 308 306 307 307 307 308 310 311 308 303 305 304 303 304 305 305 306 306 306 307 307 308 308 307 307 307 308 308 307 307 307 308 310 311 311 311 311 311 312
306 305 301 308 306 305 307 308 306 304 307 306 307 308 305 304 304 303 304 302 302 302 302 303 305 306 307 307 307 307 306 306 306 306 306 306 306 305 306 307 307 308 308 308
307 299 294 299 302 303 307 307 307 305 305 308 305 307 304 302 303 303 303 301 301 300 300 301 301 301 302 303 305 306 306 305 304 304 304 304 304 304 304 304 304 304 305 305
305 302 300 300 303 303 306 307 307 306 303 307 306 304 305 303 301 301 302 301 300 300 300 300 300 300 300 300 301 302 304 306 305 304 304 304 304 304 303 303 303 303 304 304
301 300 299 301 300 300 303 306 306 308 306 304 307 305 303 305 301 301 302 301 300 300 300 300 300 300 300 300 300 300 301 302 303 306 305 304 304 304 304 303 303 303 303 303
297 296 294 294 297 296 298 300 303 304 307 307 307 308 305 302 301 301 301 300 300 300 300 300 300 300 299 299 299 299 299 300 301 302 303 306 305 304 304 304 303 303 303 303
297 290 287 291 293 291 292 294 299 301 302 304 306 305 301 298 299 301 300 300 299 299 299 299 299 299 299 299 299 299 299 299 300 301 302 302 305 306 305 305 304 303 303 303
294 286 280 287 285 291 296 294 295 297 298 300 301 300 300 298 300 301 300 300 299 299 299 298 298 299 299 299 299 299 299 299 300 300 301 302 302 303 305 305 304 303 303 302
296 293 283 290 280 290 296 295 295 297 297 296 298 298 297 300 299 299 300 299 299 299 299 299 298 298 299 299 299 299 299 300 300 300 301 301 301 302 303 304 303 303 302 302
294 293 290 283 286 288 294 298 297 296 294 296 297 297 297 298 297 293 298 299 299 298 298 299 299 298 299 299 299 299 300 300 300 300 301 301 302 302 302 303 303 302 301 301
288 285 287 288 285 290 292 295 296 292 294 298 299 299 298 295 297 298 299 299 299 298 298 298 298 298 299 299 298 299 300 300 300 300 300 301 302 303 302 302 302 301 301 300
295 288 285 282 286 293 294 295 297 296 297 299 299 299 299 299 299 299 298 298 298 298 298 298 298 298 298 298 298 298 300 300 299 299 299 300 301 301 301 301 300 300 300 299
294 294 293 293 294 295 296 297 298 298 299 299 299 299 299 298 298 299 299 298 298 298 298 298 298 298 298 298 298 298 300 300 299 298 299 299 300 298 298 298 297 298 298 298
293 293 293 294 295 295 297 298 298 299 299 299 298 299 299 299 299 299 299 299 298 298 298 297 298 298 298 298 298 298 300 299 299 299 299 299 298 299 299 299 299 299 300 300
293 293 292 292 295 296 297 298 298 298 298 298 298 298 298 298 299 299 299 299 299 298 298 298 297 297 298 298 298 298 300 300 299 299 299 299 299 298 298 298 298 297 298 298
293 293 295 294 297 297 298 299 298 298 298 298 298 298 298 298 298 298 298 299 299 299 298 298 298 298 297 298 298 298 300 300 300 299 299 298 298 298 298 298 297 297 297 296

GFSCGP_850_thetae_237.txt.gz
Theta_e
309 309 306 311 313 313 314 314 313 314 312 315 317 315 315 311 309 307 308 310 318 325 327 330 329 327 328 329 330 329 327 326 327 326 328 329 325 323 323 324 325 325 323 324
305 307 309 311 313 313 313 311 313 313 312 314 317 316 312 310 311 308 306 309 312 319 327 329 331 331 328 328 327 327 327 327 328 328 327 326 325 325 324 323 325 326 325 323
308 308 309 310 312 312 312 313 310 316 317 315 316 315 317 312 311 311 308 307 309 312 318 323 328 329 330 327 325 325 327 328 328 329 329 328 328 328 327 323 321 322 323 325
305 307 308 310 313 312 313 313 312 315 320 320 311 318 311 313 311 310 311 308 307 310 313 315 319 325 328 329 329 327 326 326 326 326 327 328 329 328 327 327 327 327 327 328
307 307 307 309 312 310 314 311 314 315 316 317 314 316 313 310 311 310 310 309 307 308 309 310 314 314 322 324 326 326 328 326 326 325 325 326 326 326 327 326 327 328 328 328
304 305 306 307 307 309 309 311 312 312 314 316 316 317 315 312 310 308 309 308 308 307 308 308 309 313 316 317 315 318 317 323 325 327 325 322 321 322 321 324 326 325 322 322
305 305 304 306 307 307 307 308 305 309 314 317 310 313 312 311 310 308 307 309 310 310 308 307 309 309 309 310 311 310 309 315 317 321 320 322 320 321 322 323 324 325 326 325
307 305 305 305 308 308 308 309 309 309 313 315 307 312 311 308 308 308 308 311 311 313 313 311 308 309 309 310 310 310 310 309 309 311 314 316 319 317 319 319 322 323 325 325
307 307 305 305 306 306 308 309 308 308 303 308 307 307 307 308 306 304 305 306 310 311 312 312 313 312 307 308 308 310 311 310 310 309 310 311 311 312 313 313 313 312 312 311
308 307 305 305 305 306 307 306 307 305 303 309 310 307 308 306 304 303 303 303 304 305 306 307 308 309 310 309 307 307 306 307 309 310 311 311 311 311 311 311 311 311 312 312
307 306 305 305 307 308 306 307 306 306 307 308 310 309 304 305 303 303 302 300 301 302 303 304 305 306 306 306 306 306 305 306 306 306 306 307 307 308 310 311 312 312 312 312
306 305 302 307 304 303 306 308 305 304 307 305 307 307 305 304 302 302 300 299 300 300 300 300 300 301 302 304 306 306 305 304 304 304 304 305 305 305 305 306 306 307 308 309
307 298 297 300 301 302 305 306 306 304 304 306 305 306 303 302 301 302 300 299 299 300 300 300 300 300 300 300 301 302 304 306 305 304 304 304 303 303 303 303 304 304 304 304
305 302 301 300 302 302 305 306 306 305 302 306 305 305 305 301 300 301 300 299 300 300 300 300 300 299 299 299 299 300 300 301 303 305 305 304 304 304 303 303 303 303 303 303
301 298 299 301 299 299 302 304 305 308 306 303 305 304 303 300 298 301 300 299 300 300 300 299 299 299 299 299 299 299 299 300 300 301 303 305 304 304 304 303 303 303 303 303
297 295 296 296 297 295 296 298 302 303 306 306 306 307 301 302 300 301 299 299 299 299 299 298 298 299 299 299 299 299 299 299 299 300 301 302 303 305 305 304 304 303 303 303
297 294 291 294 292 290 292 294 298 302 302 303 306 304 300 297 299 300 299 299 299 299 298 298 298 298 298 299 299 299 299 299 299 299 300 300 301 302 304 305 304 303 303 302
294 289 280 288 285 291 296 294 295 298 298 301 301 300 299 297 300 300 299 299 299 298 298 298 298 298 298 298 299 299 299 299 299 299 300 300 301 301 301 303 304 304 303 302
295 293 282 289 280 290 295 294 294 296 297 295 299 298 298 299 299 298 299 298 298 298 298 298 298 298 298 298 298 298 298 299 299 299 300 300 301 301 301 302 302 302 302 302
294 292 290 280 287 289 294 297 297 296 294 295 297 295 297 298 296 294 298 298 298 298 298 298 298 298 298 298 298 298 298 299 299 299 299 300 301 301 302 302 302 302 301 301
293 284 285 285 283 288 292 296 295 293 296 297 297 297 298 295 297 298 298 299 298 298 298 298 298 298 298 298 298 297 298 299 299 299 299 299 300 301 302 302 302 301 301 300
295 290 285 281 285 292 293 295 296 295 298 299 299 299 298 298 298 299 298 298 298 298 298 298 298 298 298 298 298 297 298 299 299 299 299 300 299 300 300 300 300 300 300 300
295 293 293 292 293 294 295 297 298 298 298 298 299 299 299 299 298 298 298 298 298 298 297 297 297 297 297 297 297 297 298 298 299 299 299 299 299 298 299 299 299 298 298 298
292 293 293 294 295 294 296 297 297 298 299 299 299 298 298 298 298 298 298 299 299 298 298 298 298 298 298 297 297 298 298 298 300 299 299 299 299 299 298 298 298 298 298 299
293 293 292 292 294 295 296 297 298 299 299 299 298 298 298 298 298 299 299 298 298 298 298 298 298 298 298 298 297 297 298 298 299 300 299 299 299 299 298 298 298 298 298 298
293 293 294 295 297 297 298 299 299 298 298 298 298 298 298 298 298 298 298 297 297 297 297 297 297 297 297 297 297 298 297 297 298 298 299 300 299 298 298 298 298 297 297 297

GFSCGP_850_thetae_243.txt.gz
Theta_e
312 315 315 313 314 313 313 315 316 316 314 314 314 315 315 313 312 312 313 312 315 316 319 325 328 329 328 329 329 330 329 327 327 325 326 327 328 330 327 330 327 327 325 324
313 314 311 311 313 313 315 316 317 315 314 314 316 313 313 312 311 310 310 311 312 313 314 317 324 327 328 330 329 329 328 328 328 327 326 326 327 329 328 328 326 324 324 325
312 311 309 311 314 315 315 318 316 314 315 314 314 314 311 310 309 309 308 309 310 310 311 313 321 325 325 326 328 329 329 328 328 331 329 327 329 327 328 326 325 325 325 326
311 310 309 311 314 313 315 314 313 316 317 322 313 320 311 308 309 308 307 306 308 308 309 310 314 317 319 321 322 326 329 329 329 329 328 328 328 327 326 326 327 327 326 324
311 309 310 312 311 311 314 312 313 316 319 319 316 320 314 311 311 307 306 307 308 309 308 309 310 310 312 314 315 318 323 327 328 328 329 328 329 328 327 327 327 327 327 327
309 309 309 310 310 311 312 314 315 316 317 324 315 317 315 311 309 306 306 308 309 309 309 309 310 310 309 309 309 310 311 320 322 323 325 326 325 325 326 325 326 326 326 326
311 311 309 308 312 313 312 316 323 323 322 318 312 315 313 309 308 307 308 310 310 310 310 309 310 310 309 309 311 311 310 310 311 313 316 320 320 318 317 321 322 324 323 321
312 313 310 309 310 311 312 313 317 321 319 316 312 313 312 308 306 306 308 307 308 309 310 310 310 309 309 310 310 311 312 312 312 313 311 310 310 312 313 312 313 313 314 316
311 311 309 308 308 309 311 313 311 315 312 316 312 312 309 308 308 307 307 305 305 305 306 309 309 309 309 308 309 309 310 311 311 312 312 312 313 313 314 313 312 313 313 314
310 310 309 309 309 309 310 310 314 316 319 317 312 311 310 309 308 307 306 304 303 303 302 302 304 305 305 306 308 308 309 309 309 310 310 311 311 312 312 312 313 312 312 312
309 309 310 309 311 310 312 312 311 311 312 315 314 311 308 308 306 305 303 302 301 301 300 300 301 303 304 304 304 304 304 305 306 308 310 310 311 311 310 310 312 312 313 312
308 309 310 310 306 306 309 311 311 312 312 311 312 312 308 307 304 303 301 301 300 300 300 300 299 299 299 300 300 302 304 304 303 303 303 304 304 304 305 305 307 308 309 310
308 309 312 310 309 308 310 310 310 310 309 311 314 312 308 306 303 301 301 301 300 300 300 300 299 299 299 299 299 299 300 301 303 304 304 303 303 303 303 303 303 304 304 305
307 307 309 311 308 307 309 309 309 310 312 311 310 310 308 306 303 302 301 301 300 300 300 300 299 299 299 299 299 299 299 299 300 300 302 304 304 303 303 303 303 303 303 303
307 308 306 307 306 305 306 307 308 310 311 310 310 310 309 307 304 302 301 300 300 299 299 299 298 298 298 298 299 298 299 299 299 299 299 300 301 303 304 304 303 303 303 302
304 307 303 304 305 303 302 304 305 306 309 310 308 310 309 306 304 302 301 300 300 299 299 298 298 298 298 298 298 298 298 298 298 299 299 299 299 300 301 302 304 304 303 303
304 304 303 306 298 298 301 299 304 305 308 310 310 309 307 304 303 302 301 300 299 299 298 298 298 298 298 298 298 298 298 298 298 298 298 299 299 300 300 300 301 302 303 303
300 301 301 304 298 303 302 299 299 304 306 309 307 308 306 304 304 302 301 300 299 298 298 298 298 298 298 298 298 298 297 297 298 298 298 298 299 299 300 300 300 301 301 302
300 300 302 304 303 304 300 297 298 301 304 305 308 306 305 303 302 301 300 299 299 298 298 298 298 298 298 298 298 297 297 297 298 298 298 298 299 299 299 300 301 301 301 301
298 299 302 298 302 302 300 298 297 299 301 303 305 303 301 301 303 302 299 298 298 298 298 298 297 297 297 297 297 297 297 297 297 298 298 298 298 298 299 299 300 301 301 302
299 299 302 301 301 304 300 299 298 301 302 301 304 302 301 301 302 302 299 298 298 298 298 297 297 297 297 297 297 297 297 297 297 298 298 298 298 298 298 299 299 299 300 301
301 302 300 301 301 301 297 297 299 300 298 299 302 301 301 300 299 300 298 298 298 298 298 298 297 297 297 298 298 298 297 297 297 297 298 298 299 298 298 298 299 299 299 299
301 302 302 301 301 298 297 300 298 298 300 299 299 299 299 298 298 298 298 298 298 298 298 298 298 298 297 297 297 297 297 297 297 297 297 297 298 299 299 298 298 298 298 298
297 298 298 297 300 298 297 297 297 298 299 299 298 298 299 298 298 298 298 298 298 298 298 297 297 297 296 296 295 295 295 295 295 295 296 296 297 297 298 299 299 298 298 298
299 297 299 298 298 297 297 297 297 298 299 299 299 299 298 298 298 298 298 298 298 297 296 296 296 295 295 294 294 293 293 294 294 294 294 294 294 295 296 297 297 299 299 298
296 298 299 300 299 299 300 298 297 298 298 299 299 298 298 298 298 298 298 298 297 296 296 295 294 294 294 293 293 293 293 293 293 293 294 294 294 294 294 294 295 296 297 298

GFSCGP_850_thetae_246.txt.gz
Theta_e
313 314 316 312 313 313 313 315 315 315 314 313 315 316 314 311 310 310 308 310 311 315 314 318 324 323 329 329 330 330 328 328 327 327 326 325 326 327 324 325 326 327 327 324
313 315 311 311 312 314 315 315 315 314 314 314 315 312 311 309 309 309 308 307 310 311 311 313 321 320 323 329 330 330 329 328 327 326 328 326 326 324 325 326 326 327 328 326
311 312 310 310 313 315 314 312 312 314 314 313 313 314 312 308 308 306 306 306 309 309 309 310 314 317 312 327 329 329 329 329 328 327 327 326 326 325 326 326 327 328 324 323
311 310 309 310 312 312 314 314 313 314 316 319 313 318 311 311 308 307 303 304 306 307 309 308 309 312 311 320 326 329 329 329 328 327 328 327 327 326 326 326 325 324 325 326
312 309 309 311 311 310 312 312 313 315 318 317 314 316 312 309 309 307 306 304 307 306 308 308 308 309 310 312 316 321 323 324 326 327 327 327 327 326 327 326 323 322 324 323
310 309 309 310 309 309 311 312 314 315 317 320 311 313 312 310 308 306 307 306 309 308 307 307 307 310 310 311 312 314 315 314 317 318 323 324 326 326 326 327 326 325 326 326
311 310 309 308 310 312 311 312 316 320 316 314 311 312 311 309 307 308 308 306 307 309 308 308 308 310 310 310 310 311 311 311 311 310 313 316 318 319 322 319 322 322 322 321
311 311 310 309 310 310 310 312 312 316 315 314 310 310 310 308 308 306 305 305 305 306 308 308 309 309 309 309 309 309 310 311 311 311 311 312 312 313 312 313 313 314 314 314
311 311 309 309 308 309 311 311 310 313 309 312 311 311 309 308 307 306 305 303 303 302 303 304 306 308 308 308 308 308 308 309 309 310 311 311 312 312 312 313 313 313 313 314
310 309 308 308 309 309 310 309 311 309 311 316 311 310 309 309 307 305 303 302 301 301 301 301 301 303 303 304 305 307 308 309 308 308 310 311 311 311 311 312 311 311 311 311
309 308 309 309 309 309 310 312 311 310 310 314 315 309 307 307 304 302 302 301 300 300 300 299 299 299 300 301 302 303 304 305 306 305 306 307 308 309 307 308 309 310 312 312
308 308 306 309 306 307 309 310 311 310 311 309 310 309 307 303 302 302 301 300 300 300 300 299 299 299 299 299 299 300 300 303 303 303 303 303 303 303 303 303 304 305 307 308
308 304 302 307 308 307 309 310 310 310 308 311 312 310 305 303 302 301 301 300 300 300 300 299 299 298 298 298 299 299 299 299 300 301 303 304 303 303 303 303 302 303 303 303
306 307 306 308 307 306 308 308 309 309 308 310 308 308 305 302 300 301 301 301 300 300 299 299 298 298 298 298 298 298 298 298 299 299 299 300 301 303 304 303 303 302 302 302
306 306 305 305 305 305 304 304 305 307 308 308 308 308 307 303 300 301 301 300 300 299 298 298 298 298 298 298 298 298 298 298 298 298 298 298 299 299 300 301 303 304 304 303
305 305 301 298 304 304 303 302 302 303 305 307 308 306 306 305 303 301 301 300 299 299 298 298 298 298 298 298 298 297 297 298 298 298 298 298 298 299 299 299 299 300 301 302
302 299 296 297 297 295 295 296 300 303 304 307 308 307 305 303 302 301 301 300 299 298 298 298 298 298 298 298 298 297 297 297 298 298 298 298 298 298 299 299 299 300 300 300
297 297 295 296 291 296 300 299 298 300 303 305 307 307 305 303 303 301 300 300 299 298 298 298 297 297 297 298 297 297 297 297 297 298 298 298 298 298 298 298 299 299 300 300
300 300 294 294 294 298 298 296 297 299 301 302 306 305 304 304 302 301 300 299 298 298 298 298 297 297 297 297 297 297 297 297 297 297 298 298 298 297 298 298 299 300 300 300
299 298 297 290 294 294 300 296 298 299 297 301 305 305 302 302 300 298 300 299 298 298 298 297 297 297 297 296 296 297 297 297 297 297 297 298 298 298 297 297 297 298 298 299
296 294 294 293 292 296 300 297 298 295 298 302 305 305 301 301 302 302 300 298 298 298 297 297 297 297 297 297 297 297 297 297 297 297 297 297 298 298 298 298 298 297 297 297
298 297 296 294 293 296 298 297 297 298 298 301 305 302 301 302 301 301 299 298 298 298 298 297 297 297 297 297 297 297 296 296 296 296 296 297 297 297 297 297 298 298 298 298
299 300 299 299 299 297 298 299 298 298 299 299 303 301 301 300 300 300 298 298 298 298 298 298 298 297 297 296 295 295 294 294 294 294 294 294 294 295 295 296 296 297 298 298
296 298 297 297 297 296 297 298 298 298 298 299 301 301 301 300 299 298 298 298 298 298 298 298 297 296 295 294 294 293 293 293 293 293 293 293 293 293 294 294 294 294 295 296
296 296 295 295 296 297 298 298 297 298 298 299 298 299 300 298 298 298 298 298 298 298 297 296 296 295 294 293 293 293 293 292 292 292 292 292 293 293 294 294 294 293 293 293
296 296 297 296 298 298 298 299 298 297 298 299 299 298 298 298 298 298 298 298 298 297 296 296 294 294 293 293 293 293 293 293 293 293 293 293 293 293 293 293 294 293 293 293

GFSCGP_850_thetae_249.txt.gz
Theta_e
314 310 306 310 311 311 312 313 314 311 313 313 314 313 311 309 308 307 306 307 307 309 310 312 314 318 322 324 327 328 329 329 328 327 326 325 326 327 326 325 325 323 322 322
309 312 309 310 310 311 313 310 310 311 314 315 314 313 309 308 308 306 304 303 305 307 309 310 314 315 319 321 325 329 329 328 327 327 327 326 324 325 324 324 323 324 324 324
310 310 309 309 309 312 311 308 309 310 314 313 311 313 309 309 308 307 305 303 303 307 309 309 310 312 315 316 322 325 328 328 328 327 327 326 325 324 325 325 323 325 325 326
309 308 309 308 310 309 310 313 310 312 317 317 310 312 308 307 308 307 306 304 305 306 308 309 309 310 311 312 315 313 326 327 327 327 327 327 326 325 325 323 324 325 325 326
309 308 308 309 309 308 309 309 311 313 316 317 308 309 309 307 308 307 307 307 308 306 306 308 309 309 310 309 313 310 316 325 327 326 328 328 327 326 325 326 326 326 326 324
308 308 307 308 307 307 308 310 311 314 316 316 306 307 304 309 308 307 306 306 306 306 307 306 308 308 309 309 308 309 311 316 320 323 326 326 325 326 326 326 326 325 323 321
309 308 308 308 308 309 308 309 305 308 308 310 309 309 306 308 307 306 305 305 305 305 306 306 307 307 308 308 309 310 311 311 312 314 316 315 316 317 319 321 320 317 319 318
308 307 308 308 308 309 308 310 306 310 312 310 308 308 306 307 307 306 304 302 302 302 302 304 306 308 307 308 309 309 310 310 311 312 313 313 312 312 313 313 314 314 314 314
309 310 308 308 307 307 309 308 309 311 305 310 308 309 308 307 305 303 302 301 300 300 301 303 303 304 304 304 307 308 308 309 310 310 311 312 312 312 311 311 312 312 312 312
308 306 307 307 307 308 309 308 309 305 306 310 309 308 308 307 304 301 300 300 300 299 299 299 299 300 300 302 303 305 308 308 308 308 309 310 310 309 310 310 310 311 311 311
307 306 306 307 308 308 308 309 309 307 308 313 312 308 304 304 302 300 300 300 300 299 299 299 298 299 299 299 300 303 303 303 304 305 306 306 306 305 304 305 306 307 309 310
307 306 303 307 305 306 307 309 309 307 309 307 309 308 305 301 300 300 300 300 300 300 299 299 298 298 298 298 299 299 299 302 303 303 303 303 303 303 303 303 303 303 304 304
306 297 295 305 304 306 308 308 309 308 306 308 309 307 302 301 300 300 300 300 300 300 299 298 298 298 298 298 298 298 298 299 299 299 301 302 303 303 303 302 302 302 302 303
306 303 302 305 306 305 305 306 307 308 304 308 307 307 303 300 298 299 300 300 299 299 298 298 298 298 298 297 298 298 298 298 298 298 298 299 299 301 302 303 303 303 303 303
305 299 303 303 303 304 304 304 303 305 306 307 306 306 304 301 298 300 300 300 299 298 298 298 297 298 297 297 297 297 297 298 298 298 298 298 299 299 299 299 300 301 301 302
303 296 298 295 301 301 303 302 301 301 302 303 305 306 304 304 301 300 300 299 299 298 298 298 297 297 297 297 297 297 297 297 297 297 298 298 298 298 299 299 299 299 299 300
301 295 290 293 296 292 294 294 300 301 301 303 305 306 302 300 300 300 300 300 299 298 298 297 297 297 297 297 297 297 296 297 297 297 297 297 297 297 298 298 298 298 299 299
296 294 287 291 287 293 298 297 297 299 300 302 305 305 303 303 301 302 301 300 299 298 298 297 297 297 297 297 297 296 296 297 297 297 297 297 297 297 297 297 297 297 297 298
298 298 289 291 284 295 298 296 296 297 298 299 303 304 302 301 301 300 301 300 299 298 298 297 297 297 297 296 296 296 296 297 297 297 297 297 297 297 297 297 297 297 297 297
297 297 293 283 288 291 297 296 298 297 294 297 302 303 300 301 300 297 300 300 298 298 298 297 297 297 296 296 296 296 296 296 296 296 296 296 296 296 296 296 296 296 297 297
298 292 292 284 287 293 295 296 298 293 297 298 300 305 301 301 302 302 300 300 299 298 298 297 297 296 297 297 297 297 297 296 296 296 296 296 296 295 295 295 295 295 296 296
298 297 292 287 291 298 297 296 296 297 298 299 302 305 303 303 303 302 300 299 298 298 297 297 296 297 297 297 296 296 295 295 294 294 293 293 293 293 293 293 293 293 293 293
298 298 297 298 299 298 297 297 298 299 299 299 303 304 305 302 303 302 300 299 298 298 297 297 297 297 297 296 295 294 294 293 292 292 292 292 293 293 293 293 293 294 294 294
296 298 297 298 298 297 298 298 299 298 298 298 302 303 303 303 302 301 299 298 298 297 297 298 297 297 296 295 294 293 293 292 292 292 292 292 292 292 293 293 293 293 293 293
295 296 296 295 296 296 298 299 298 298 298 298 299 301 302 301 300 300 298 298 298 297 298 297 297 296 295 294 293 292 292 292 293 293 293 293 293 293 293 293 293 293 293 293
295 295 298 297 298 299 298 300 299 298 298 298 299 300 301 301 300 298 298 298 297 297 297 297 296 295 294 293 292 292 293 293 292 292 292 292 292 292 292 292 292 292 292 293

GFSCGP_850_thetae_255.txt.gz
Theta_e
311 308 305 308 310 309 309 311 309 308 309 312 312 312 307 307 307 307 306 305 306 306 307 308 309 309 310 312 314 316 317 320 323 326 328 328 330 329 327 326 326 324 323 323
307 311 309 308 308 310 310 307 306 307 309 313 311 309 307 306 307 306 306 306 305 306 306 307 308 308 308 309 311 315 317 319 321 324 326 327 327 328 328 328 327 325 323 321
308 309 308 307 308 310 307 303 302 309 309 311 309 305 307 305 306 306 305 305 304 305 306 306 306 307 308 308 310 312 316 318 319 320 321 326 328 326 328 328 327 324 323 323
308 307 307 306 308 307 308 307 308 309 310 308 308 305 299 303 306 306 306 304 303 304 304 304 306 307 307 308 309 311 314 319 317 319 324 325 323 327 325 327 326 325 324 324
306 307 307 307 308 307 306 309 308 308 310 313 305 311 300 303 303 304 304 304 303 303 303 303 304 306 307 308 308 310 312 317 318 318 319 325 324 323 326 327 326 325 324 325
307 307 306 306 307 306 306 308 308 310 311 305 301 303 301 300 303 303 304 302 301 302 303 303 303 304 306 308 310 311 312 312 319 319 319 318 324 324 326 326 326 326 325 324
306 308 307 307 307 306 307 306 301 300 303 307 306 304 303 302 305 305 303 300 300 302 300 301 302 303 304 306 308 310 311 312 312 312 312 314 321 322 320 323 321 321 320 319
306 306 307 307 306 307 308 307 303 301 308 307 306 306 305 305 303 304 300 299 299 299 299 300 300 302 303 304 305 308 310 311 310 312 311 312 313 314 313 314 313 313 313 312
307 308 306 306 306 306 307 307 306 309 302 308 306 306 305 304 301 300 299 299 299 298 298 298 298 300 303 303 304 304 307 309 309 310 311 311 311 311 310 311 311 311 311 311
307 306 305 306 306 306 307 305 307 303 303 305 307 308 307 306 303 299 298 298 299 298 298 298 298 298 299 301 302 303 304 304 304 305 308 309 310 310 309 310 310 310 309 308
306 304 304 306 307 306 307 308 307 305 306 310 309 306 302 304 303 298 298 299 299 298 298 297 297 298 298 298 298 301 303 303 302 303 303 304 304 305 306 306 307 307 307 307
306 304 303 305 303 303 305 307 306 305 305 305 308 306 303 302 301 299 299 299 299 298 298 297 297 297 297 297 298 298 299 301 302 302 302 302 302 302 303 303 303 303 303 303
303 297 294 299 302 304 306 305 306 305 305 307 306 304 300 300 299 299 299 299 299 298 297 297 297 297 297 297 297 297 298 298 299 301 302 302 302 302 302 302 302 302 302 302
304 300 300 302 304 304 305 305 305 306 304 306 306 305 303 299 297 297 298 299 299 298 297 297 297 297 296 297 297 297 297 297 298 298 298 299 300 300 300 301 301 300 300 300
303 298 299 302 302 303 304 304 304 306 306 306 304 303 303 301 298 298 299 299 298 298 297 297 297 297 296 296 297 297 297 297 297 297 298 298 298 298 298 298 298 298 298 298
301 296 296 296 298 300 300 302 302 303 304 304 305 305 301 303 300 299 299 299 298 298 297 297 297 297 296 296 296 296 296 296 296 297 297 297 297 297 297 297 297 297 297 297
301 295 291 293 293 292 296 297 299 301 301 303 304 304 301 300 299 300 299 300 299 298 297 297 297 297 297 296 296 296 296 296 296 296 296 296 296 296 296 296 296 296 296 295
295 291 285 291 288 297 301 296 296 298 299 301 301 300 301 303 305 306 304 301 300 299 298 297 297 297 296 296 296 296 296 296 296 296 296 296 296 296 295 295 295 294 294 294
297 297 286 292 285 295 300 295 296 297 298 297 300 301 301 303 302 302 304 302 301 300 299 298 297 296 296 296 296 296 296 296 296 296 296 295 295 294 294 294 294 294 293 293
296 295 294 281 290 295 300 296 296 296 297 295 298 299 299 299 300 300 304 303 301 300 298 298 297 296 296 295 296 296 296 296 295 295 295 294 294 293 293 293 293 293 293 293
299 297 293 281 287 292 294 295 296 296 302 298 297 298 300 298 302 305 305 302 301 300 298 297 297 297 296 296 296 296 296 295 295 294 293 293 293 293 293 293 293 294 294 293
300 299 296 291 290 297 295 295 295 297 297 298 300 299 300 302 303 305 306 302 300 299 298 298 297 296 296 296 296 296 295 294 293 293 293 293 293 293 293 294 294 293 293 294
299 297 296 296 299 297 296 297 298 298 298 298 299 300 300 301 302 304 305 302 300 300 298 298 297 296 296 296 296 295 294 293 293 293 293 293 293 293 293 293 293 293 294 293
294 295 295 296 299 296 298 299 298 298 299 299 299 299 301 301 303 303 304 302 300 299 298 298 297 296 296 296 296 295 294 293 293 293 293 293 293 293 293 293 293 293 293 293
295 296 295 295 297 297 298 300 301 300 299 298 298 298 299 302 302 303 304 302 301 300 298 298 297 296 296 296 296 294 293 292 292 293 293 293 293 293 292 293 293 293 293 293
294 296 298 299 299 301 302 304 304 301 300 300 299 298 298 299 302 302 303 304 302 299 299 298 297 296 296 296 295 294 292 292 292 293 292 293 293 293 293 293 292 293 292 292

GFSCGP_850_thetae_258.txt.gz
Theta_e
309 307 305 308 310 308 309 310 308 307 308 311 311 311 308 306 306 306 305 304 304 304 305 306 307 308 308 309 309 309 312 315 317 319 324 326 330 328 327 328 328 325 326 322
306 310 308 307 308 310 310 306 306 306 307 312 310 308 307 305 306 306 306 304 304 304 304 305 306 307 308 307 308 309 311 314 318 322 325 324 326 328 326 328 325 324 324 324
307 308 307 307 307 309 306 304 300 308 307 311 307 304 303 304 306 305 305 304 304 304 303 304 305 307 307 308 307 308 309 312 316 320 323 326 325 325 327 327 324 326 324 324
307 306 307 306 307 306 307 305 307 309 308 306 304 305 297 301 304 304 304 302 303 303 303 304 304 306 307 309 307 307 308 311 316 318 319 323 324 325 325 326 325 325 327 325
306 306 306 307 307 306 305 307 308 307 309 312 303 299 299 302 302 303 303 302 302 302 302 303 303 304 306 308 309 307 307 309 316 318 318 321 323 324 323 324 322 322 325 324
306 307 306 306 306 306 306 307 305 308 308 304 299 301 300 298 301 302 303 300 300 301 300 303 302 304 305 307 309 310 310 309 311 316 317 318 320 323 322 320 322 324 325 325
306 307 306 306 306 305 307 305 300 299 301 306 304 304 303 301 303 304 302 299 299 298 298 300 303 303 304 306 307 309 310 311 310 311 314 316 320 322 320 319 318 320 318 316
305 305 307 306 306 305 307 306 302 301 305 305 306 306 305 302 304 304 300 299 298 298 298 298 299 302 303 304 305 306 308 308 310 311 311 311 312 313 314 313 314 313 312 313
307 308 306 305 305 305 307 306 305 307 300 306 305 305 304 302 301 299 299 298 298 298 298 298 298 298 301 302 303 303 306 307 309 309 310 311 311 311 311 311 310 310 310 310
306 306 305 305 306 305 306 304 306 302 300 302 303 307 306 305 303 299 298 298 298 298 297 297 297 298 298 299 302 302 302 304 306 307 308 309 310 310 310 310 310 310 310 309
304 303 303 305 306 306 307 307 306 304 306 306 307 303 301 303 302 300 298 298 298 298 297 297 297 297 297 298 298 301 302 302 302 303 305 305 306 306 307 308 307 308 308 308
304 302 301 305 303 302 305 305 305 304 303 305 307 305 302 301 301 301 298 299 298 298 297 297 297 297 297 297 298 298 300 302 302 302 302 302 303 303 303 303 303 303 303 303
303 297 294 299 302 303 306 305 305 304 304 305 305 303 300 300 299 300 298 299 299 298 297 297 297 297 297 297 297 297 298 298 301 302 302 302 302 302 301 301 301 301 302 302
303 300 300 303 304 303 305 304 304 305 303 304 305 305 303 300 298 297 298 299 299 298 297 297 296 296 296 296 296 297 297 298 298 298 299 300 300 300 300 299 299 298 298 298
302 298 299 302 302 303 304 304 304 306 305 304 303 303 302 301 298 298 299 299 299 298 297 297 297 296 296 296 296 296 297 297 297 298 298 298 298 298 298 297 297 297 297 297
300 297 296 295 298 299 300 302 302 303 305 305 305 306 300 303 302 299 299 299 299 299 297 297 297 296 296 296 296 296 296 296 296 297 297 297 297 297 296 296 296 296 296 296
301 295 292 295 293 292 299 296 299 301 301 304 305 305 301 299 298 300 300 299 299 299 298 297 297 297 296 296 296 296 296 296 296 296 296 296 296 296 296 295 295 295 294 294
296 292 286 291 289 300 304 296 296 298 299 301 301 300 300 302 304 304 305 302 300 300 299 297 297 297 296 296 295 296 296 296 296 296 296 295 295 295 294 294 294 294 294 294
297 296 287 293 287 297 302 294 295 297 299 297 300 301 300 302 302 303 304 305 304 301 300 298 297 297 296 296 295 296 296 296 296 296 295 295 294 294 294 294 294 294 293 294
295 295 295 282 291 298 303 295 295 296 298 296 296 298 297 299 300 300 303 304 305 301 300 298 297 297 296 295 295 296 296 295 295 295 294 294 293 293 293 294 294 294 294 294
300 294 292 283 289 293 295 295 295 298 304 297 297 297 298 299 300 303 303 304 305 304 300 298 298 297 296 295 295 296 295 295 295 294 294 293 293 293 294 294 294 294 293 293
301 300 297 286 290 299 294 294 296 299 298 298 299 298 298 300 301 301 305 305 305 302 300 298 298 297 296 295 295 295 296 295 294 294 293 293 293 293 293 293 293 293 293 293
301 298 297 298 299 298 296 298 298 299 298 298 299 300 299 299 300 303 305 305 304 301 300 299 298 297 296 295 296 296 295 295 294 292 292 292 292 293 293 293 293 293 293 293
294 295 295 297 300 296 297 299 299 298 299 299 299 299 300 300 300 302 304 304 303 301 300 299 298 297 296 296 296 296 295 294 293 292 292 292 293 293 292 292 293 293 293 293
295 295 295 295 297 297 298 300 302 300 300 298 299 299 299 299 300 301 302 304 303 301 300 299 299 298 297 296 296 296 295 294 292 292 292 292 292 292 292 292 292 293 293 293
293 296 299 301 300 303 303 306 306 302 302 301 299 299 298 298 299 301 302 304 304 302 301 299 299 298 297 296 296 296 295 293 292 292 292 292 292 292 292 292 292 292 292 292

GFSCGP_850_thetae_261.txt.gz
Theta_e
308 306 304 309 308 307 308 310 309 307 307 309 310 310 308 305 305 305 305 304 304 304 304 304 304 307 308 308 307 308 308 309 311 313 313 315 322 325 324 328 326 327 326 323
306 308 306 306 308 309 309 306 306 306 306 310 309 308 307 305 305 305 305 304 303 303 304 304 305 305 308 308 307 307 308 310 311 312 315 320 322 323 323 325 326 327 326 322
305 308 306 306 306 308 305 305 301 308 307 309 306 304 305 304 304 305 303 303 302 302 303 304 304 304 306 309 307 307 307 309 310 313 317 320 321 323 323 323 325 324 326 324
307 306 306 305 306 306 306 305 306 308 308 308 304 306 297 301 303 303 303 302 301 301 300 303 303 305 306 308 308 306 306 308 310 315 316 319 321 322 323 322 322 326 326 325
306 306 306 307 306 305 305 306 308 307 308 311 303 307 301 300 303 303 303 301 300 299 298 301 303 304 305 306 307 308 306 306 310 315 317 318 321 321 323 325 325 325 325 324
305 306 305 306 305 305 305 307 304 305 308 305 298 302 303 300 302 302 303 300 298 298 298 298 302 305 304 304 305 306 307 305 306 315 319 318 319 321 323 323 323 323 322 322
306 307 305 306 305 305 306 304 302 302 301 306 303 304 304 301 301 303 303 299 298 298 298 298 298 302 304 304 304 305 307 307 305 311 316 318 320 320 322 321 320 319 320 321
306 306 306 305 305 304 307 304 302 302 303 303 304 307 307 301 303 304 301 298 298 298 297 297 298 298 300 302 304 304 306 307 308 307 310 312 312 314 315 315 315 314 314 314
305 307 305 304 305 304 306 306 304 305 300 305 303 304 302 302 300 300 299 298 298 298 297 297 297 297 298 301 302 303 304 306 308 309 310 311 311 311 311 311 311 311 311 311
305 307 304 305 306 305 305 303 306 302 300 302 301 305 305 305 303 299 297 298 298 298 297 297 297 297 297 298 301 302 302 304 306 308 308 308 308 309 310 310 310 310 310 310
304 303 303 305 305 305 306 307 305 304 305 304 305 303 301 303 302 302 299 298 298 298 297 297 297 296 297 297 299 301 302 302 303 304 305 307 308 308 309 309 309 310 310 309
304 302 303 305 302 302 304 304 304 303 302 304 306 305 302 301 301 302 301 298 299 298 297 297 296 296 296 297 297 299 301 302 301 302 302 303 304 304 304 304 305 305 305 305
303 299 297 300 301 302 304 304 304 303 303 305 305 303 299 300 301 302 300 298 299 298 297 297 296 296 296 296 297 297 298 300 302 302 301 301 301 301 301 301 301 301 301 301
303 300 302 305 305 301 304 304 304 305 304 304 305 303 302 300 300 299 299 298 299 298 297 297 296 296 296 296 296 297 297 298 299 300 300 300 300 300 299 299 298 298 298 297
302 299 299 301 301 303 304 304 304 306 304 304 303 303 303 301 299 301 302 298 298 298 297 297 297 296 296 296 296 296 297 297 297 297 297 297 297 297 297 297 297 296 296 296
300 299 297 296 297 299 300 302 302 304 305 304 304 305 300 303 302 301 301 299 298 299 298 297 297 296 296 296 296 296 296 296 297 297 297 297 296 296 296 296 295 295 295 294
300 297 295 297 293 292 300 296 300 301 300 304 305 305 300 299 299 301 302 301 300 300 300 298 297 297 296 296 296 296 296 296 296 296 296 296 295 295 295 295 294 294 294 293
296 294 290 294 290 300 305 296 296 300 300 301 302 300 301 302 304 305 305 304 302 300 300 299 297 297 296 296 295 296 295 296 295 295 295 295 295 294 294 293 293 293 293 293
297 296 288 296 291 299 305 295 296 297 301 298 301 301 299 301 302 302 304 304 305 304 301 301 299 297 297 296 295 296 296 296 295 295 295 294 294 294 293 293 293 293 293 293
295 295 296 283 296 302 305 295 295 296 301 297 298 298 297 300 300 300 302 304 305 305 301 300 299 297 297 296 295 295 295 295 295 295 294 294 293 293 293 293 293 293 293 293
297 292 295 289 292 294 297 294 295 301 308 296 297 297 298 298 300 302 302 303 304 306 303 300 299 299 297 296 295 295 295 295 295 294 294 293 293 293 293 293 293 293 294 293
301 298 292 286 291 300 295 293 298 301 298 299 298 298 299 300 301 302 302 302 303 304 302 300 299 298 297 296 295 295 295 295 295 294 293 293 293 293 293 293 293 293 293 293
302 299 299 298 299 298 296 299 299 300 299 299 300 300 299 299 300 301 301 303 303 304 303 300 299 298 297 296 295 295 295 295 295 294 293 293 292 292 293 293 293 293 293 293
295 295 296 298 301 297 297 300 298 299 299 299 299 299 300 300 300 300 302 304 304 303 303 300 299 298 298 296 296 295 295 295 294 293 292 292 293 293 293 293 293 293 293 293
296 296 294 295 297 297 299 301 303 301 299 299 299 299 299 299 300 300 301 304 304 304 302 300 299 299 299 297 296 295 296 295 294 293 292 292 293 293 293 293 292 292 292 293
293 296 301 301 302 303 305 308 309 304 302 301 300 299 299 299 299 299 300 301 303 303 302 300 300 300 299 298 296 295 296 295 294 293 292 292 292 292 292 292 292 292 292 293